Regional Weather Roundup
Issued by NWS

Home | Current Version | Previous Version | Text Only | Print | Product List | Glossary On
Versions: 1 2 3 4 5 6 7 8 9 10 11 12 13 14 15 16 17 18 19 20 21 22 23 24 25 26 27 28 29 30 31 32 33 34 35 36 37 38 39 40 41 42 43 44 45 46 47 48 49 50
000
ASUS43 KMPX 011201
RWRMN
WEATHER ROUNDUP FOR MINNESOTA
NATIONAL WEATHER SERVICE TWIN CITIES/CHANHASSEN MN
600 AM CST SUN MAR 01 2015


NOTE: "FAIR" INDICATES FEW OR NO CLOUDS BELOW 12,000 FEET WITH NO
SIGNIFICANT WEATHER AND/OR OBSTRUCTIONS TO VISIBILITY. N/A MEANS
CURRENT SKY AND/OR WEATHER CONDITIONS ARE NOT AVAILABLE.

MNZ060>063-068>070-011300-
   Twin Cities Metro

CITY           SKY/WX    TMP DP  RH WIND       PRES   REMARKS
TWIN CITIES    CLOUDY    16  10  77 SW8       30.24S WCI   5
6HR MIN TEMP:  14; 6HR MAX TEMP:  16; 6HR PCP: TRACE;

ST PAUL        CLOUDY    17  12  80 SW6       30.25F WCI   9
CRYSTAL        CLOUDY    16  11  80 S6        30.21F WCI   7
BLAINE         CLOUDY    18  14  86 S6        30.21S WCI   9
LAKEVILLE      MOCLDY    12  10  92 SW6       30.23S WCI   3
EDEN PRAIRIE   CLOUDY    15  10  80 SW5       30.22F WCI   8
6HR MIN TEMP:  12; 6HR MAX TEMP:  16;

SOUTH ST PAUL  MOCLDY    18  13  81 SW3       30.24S
LAKE ELMO      CLOUDY    18  14  86 S7        30.23F WCI   8
$$
MNZ001>005-007-008-013>017-022>024-027-028-011300-
   Northwest Minnesota

CITY           SKY/WX    TMP DP  RH WIND       PRES   REMARKS
BEMIDJI        CLEAR      0  -3  86 SW7       30.11F WCI -13
HALLOCK        CLEAR     -8 -13  77 S9        30.10S WCI -25
ROSEAU         CLEAR     -2  -8  78 SW9       30.08S WCI -18
WARROAD        CLEAR     -2  -8  78 SW7       30.07S WCI -16
THIEF RVR FALL CLEAR     -6 N/A N/A SW9       30.11S WCI -22
CROOKSTON      CLEAR     -2  -8  78 S7        30.17S WCI -16
FOSSTON        PTCLDY    -9 -11  92 S9        30.14S WCI -27
DETROIT LAKES  FAIR       1   0  92 SW6       30.17S WCI -10
MOORHEAD       CLEAR     -2  -4  92 S5        30.21S WCI -12
PARK RAPIDS    FAIR      -2  -8  76 SW6       30.13S WCI -14
MAHNOMEN       FAIR      -7 -11  82 S7        30.15S WCI -22
$$
MNZ006-009>011-018-025>026-011300-
   North Central Minnesota

CITY           SKY/WX    TMP DP  RH WIND       PRES   REMARKS
BAUDETTE       CLEAR     -3  -7  82 SW5       30.06S WCI -13
FLAG ISLAND    CLEAR     -6  -9  84 S6        30.05R WCI -18
INTL FALLS     CLEAR      4   0  83 SW6       30.06S WCI  -7
6HR MIN TEMP:   4; 6HR MAX TEMP:  17; 6HR PCP:  0.01;

WASKISH        CLEAR      1   0  92 CALM      30.09S
BIG FORK       FAIR       5   0  78 SW6       30.10R WCI  -6
LONGVILLE      CLEAR      3   0  85 SW3       30.14S
GRAND RAPIDS   CLOUDY    10   5  79 NW13      30.09R WCI  -5
CRANE LAKE     LGT SNOW  12  10  92 SW5       30.09S WCI   4
ORR            LGT SNOW  12   9  85 CALM      30.04S
COOK           LGT SNOW  12  10  92 SW6       30.07S WCI   3
WALKER         FAIR       1  -2  85 W5        30.12F WCI  -8
$$
MNZ012-019>021-037-011300-
   Northeast Minnesota

CITY           SKY/WX    TMP DP  RH WIND       PRES   REMARKS
DULUTH         LGT SNOW  11   6  81 SW9       30.09F WCI  -2
6HR MIN TEMP:  11; 6HR MAX TEMP:  12; 6HR PCP: TRACE;

ELY            CLOUDY    10   7  85 SW7       30.06S WCI   0
HIBBING        LGT SNOW  13   8  81 S5        30.08S WCI   5
EVELETH        FLURRIES  12   9  85 SW7       30.09S WCI   2
DULUTH HARBOR  CLOUDY    16   9  73 CALM      30.18F
SILVER BAY     FLURRIES  10   7  85 CALM      30.10S
GRAND MARAIS     N/A     15   7  70 W6        30.14F WCI   6
G MARAIS ARPRT FLURRIES   7   1  78 SW3       30.03S
$$
MNZ029>031-032-039>041-046>048-054>057-064-011300-
   West Central Minnesota

CITY           SKY/WX    TMP DP  RH WIND       PRES   REMARKS
FERGUS FALLS   PTCLDY     0  -6  78 CALM      30.26S
MORRIS         PTCLDY     3  -2  78 W5        30.23R WCI  -6
ALEXANDRIA     CLEAR      4  -1  80 W12       30.19R WCI -12
ELBOW LAKE     FAIR       0  -4  85 W5        30.21S WCI -10
WADENA         CLEAR      0  -4  85 W5        30.17S WCI -10
APPLETON       CLEAR      3  -2  78 W7        30.26R WCI  -9
BENSON         CLEAR      7   0  72 NW7       30.24R WCI  -5
ORTONVILLE     PTCLDY     5   0  78 W3        30.25S
MADISON        PTCLDY     7   0  72 W6        30.27R WCI  -3
WILLMAR        FAIR       7   1  78 W8        30.24R WCI  -6
$$
MNZ033>034-036-042>043-049>051-058-059-011300-
   Central Minnesota

CITY           SKY/WX    TMP DP  RH WIND       PRES   REMARKS
ST CLOUD       CLOUDY    15  11  83 W10       30.18F WCI   2
6HR MIN TEMP:  12; 6HR MAX TEMP:  16;

SAUK CENTRE    FAIR       6   1  83 W7        30.19F WCI  -6
PAYNESVILLE    CLEAR      6   3  90 SW6       30.21S WCI  -5
PINE RIVER     CLEAR      3   1  92 W3        30.18S
BRAINERD       PTCLDY     8   2  76 NW9       30.16R WCI  -5
STAPLES        CLEAR      0  -2  92 W8        30.17S WCI -15
LONG PRAIRIE   FAIR       5   1  85 W7        30.18S WCI  -7
LITTLE FALLS   PTCLDY    10   3  72 W6        30.19R WCI   1
LITCHFIELD     CLEAR     10   9  92 W7        30.22R WCI   0
MAPLE LAKE     PTCLDY    13  11  90 SW3       30.21R
$$
MNZ037-044-045-052-053-011300-
   East Central Minnesota

CITY           SKY/WX    TMP DP  RH WIND       PRES   REMARKS
PRINCETON      PTCLDY    16  10  79 CALM      30.18F
MORA           MOCLDY    14  10  85 SW6       30.19F WCI   5
CAMBRIDGE      CLOUDY    18   9  68 SW3       30.18F
RUSH CITY      CLOUDY    15  12  85 SW3       30.20F
MOOSE LAKE     CLOUDY    12   9  85 CALM      30.14S
HINCKLEY       FLURRIES  14  12  92 S7        30.18S WCI   4
CLOQUET        FLURRIES  10   7  85 S7        30.11F WCI   0
MCGREGOR       MOCLDY    14  10  85 S3        30.13S
$$
MNZ071>073-080-081-089-090-097-098-011300-
   Southwest Minnesota

CITY           SKY/WX    TMP DP  RH WIND       PRES   REMARKS
MONTEVIDEO     CLEAR      7   1  78 NW3       30.27R
GRANITE FALLS  CLEAR      5   1  81 SW7       30.28R WCI  -7
CANBY          PTCLDY     8   2  74 SW9       30.27S WCI  -5
MARSHALL       PTCLDY     7   1  78 W9        30.27S WCI  -7
REDWOOD FALLS  FAIR      10   3  73 W10       30.27R WCI  -4
OLIVIA         CLEAR      5   1  85 W8        30.25R WCI  -8
PIPESTONE      PTCLDY     7   3  85 CALM      30.24S
WINDOM         PTCLDY    12  10  92 W6        30.24S WCI   3
WORTHINGTON    MOCLDY    21   5  49 W8        30.26S WCI  12
JACKSON        MOCLDY    14  10  85 W8        30.25S WCI   3
TRACY          PTCLDY     9   5  83 SW8       30.26R WCI  -3
SLAYTON        MOCLDY     9   5  82 CALM      30.24S
$$
MNZ065>067-074>077-082>085-091>093-011300-
   South Central Minnesota

CITY           SKY/WX    TMP DP  RH WIND       PRES   REMARKS
MANKATO        CLOUDY    16   9  73 SW7       30.25R WCI   6
NEW ULM        PTCLDY    12   7  79 W10       30.26R WCI  -1
ST JAMES       PTCLDY    12   9  85 W7        30.27S WCI   2
FAIRMONT       CLOUDY    16  10  79 W10       30.24S WCI   3
GLENCOE        CLEAR     13  11  90 SW6       30.23R WCI   4
FARIBAULT      CLOUDY    16  12  86 SW8       30.24F WCI   5
OWATONNA       CLOUDY    16  12  86 SW14G20   30.24S WCI   1
WASECA         CLOUDY    14  12  92 SW13      30.27R WCI   0
ALBERT LEA     PTCLDY    14  12  92 SW7       30.25S WCI   4
$$
MNZ078>079-086>088-094>096-011300-
   Southeast Minnesota

CITY           SKY/WX    TMP DP  RH WIND       PRES   REMARKS
ROCHESTER      PTCLDY    11   8  88 SW12      30.24S FOG     WCI  -3
6HR MIN TEMP:   5; 6HR MAX TEMP:  11;

RED WING       MOCLDY    14  10  85 S5        30.26F WCI   6
STANTON        CLOUDY    16  12  84 SW9       30.23S WCI   5
DODGE CENTER   CLOUDY    12  12 100 SW17      30.22S FOG     WCI  -5
WINONA         CLOUDY    14  10  85 CALM      30.32F
AUSTIN         CLOUDY    12  10  92 S8        30.26S FOG     WCI   1
PRESTON        CLOUDY    10   8  92 SW9       30.26F FOG     WCI  -2
$$
ABBREVIATIONS USED IN REMARKS
   TC - TEMPERATURES IN CELSIUS
  WCI - WIND CHILL INDEX
   HX - HEAT INDEX
  VSB - VISIBILITY
$$



USA.gov is the U.S. government's official web portal to all federal, state and local government web resources and services.